This is the latest recevied weather packets stored in our database for station/object K7MT-WX. If no packets are shown the sender has not sent any weather packets the latest 10 day(s).
| Time | Temp. | Humidity | Pressure | Rain* | Wind** | Luminosity | Snow |
|---|---|---|---|---|---|---|---|
| 1777943051 | 11.11° C | 46% | 1015.1 hPa | 0 mm | - | - | - |
| 1777942150 | 11.67° C | 47% | 1015.1 hPa | 0 mm | - | - | - |
| 1777941221 | 11.67° C | 46% | 1015 hPa | 0 mm | - | - | - |
| 1777940321 | 12.22° C | 46% | 1014.9 hPa | 0 mm | - | - | - |
| 1777939420 | 12.22° C | 45% | 1014.9 hPa | 0 mm | - | - | - |
| 1777938521 | 12.78° C | 44% | 1014.7 hPa | 0 mm | - | - | - |
| 1777937621 | 13.33° C | 43% | 1014.6 hPa | 0 mm | - | - | - |
| 1777936720 | 13.33° C | 42% | 1014.5 hPa | 0 mm | - | - | - |
| 1777935820 | 13.89° C | 42% | 1014.4 hPa | 0 mm | - | - | - |
| 1777934920 | 13.89° C | 40% | 1014.2 hPa | 0 mm | - | - | - |
| 1777934021 | 14.44° C | 40% | 1014 hPa | 0 mm | - | - | - |
| 1777933120 | 15° C | 37% | 1013.9 hPa | 0 mm | - | - | - |
| 1777932221 | 15° C | 35% | 1014 hPa | 0 mm | - | - | - |
| 1777931321 | 15° C | 36% | 1014.1 hPa | 0 mm | - | - | - |
| 1777930420 | 14.44° C | 35% | 1014.1 hPa | 0 mm | - | - | - |
| 1777929520 | 14.44° C | 34% | 1014.2 hPa | 0 mm | - | - | - |
| 1777928620 | 14.44° C | 34% | 1014.4 hPa | 0 mm | - | - | - |
| 1777927720 | 14.44° C | 35% | 1014.6 hPa | 0 mm | - | - | - |
| 1777926820 | 14.44° C | 36% | 1014.7 hPa | 0 mm | - | - | - |
| 1777925920 | 13.89° C | 38% | 1014.7 hPa | 0 mm | - | - | - |
| 1777925021 | 12.78° C | 37% | 1014.8 hPa | 0 mm | - | - | - |
| 1777924120 | 13.89° C | 37% | 1014.9 hPa | 0 mm | - | - | - |
| 1777923220 | 13.89° C | 35% | 1014.9 hPa | 0 mm | - | - | - |
| 1777922320 | 13.33° C | 37% | 1014.9 hPa | 0 mm | - | - | - |
| 1777921420 | 12.78° C | 39% | 1015 hPa | 0 mm | - | - | - |
* Rain latest hour (hover to see other rain measurements)
** Current wind speed in m/s (hover to see current wind gust speed)